Starlink 5846

operational
NORAD ID: 56492 Int'l Des: 2023-064 Owner: SPXS Country: US Constellation: starlink
LEOCIRCULAR

关于 Starlink 5846

正在加载描述...

实时位置

正在加载3D地球...

即将过境

高度历史

Altitude vs Time

uPlot chart will show altitude changes over time

两行轨道根数

1 56492U 23064AW 26063.15189943 .00000502 00000-0 49875-4 0 9992
2 56492 69.9994 118.3954 0003269 265.9648 94.1137 14.98331199155403
Epoch: Mar 4, 2026 • Age: 11 hours

当前状态

高度 594.6 km
速度 7.56 km/s
星下点 -67.08°S, 86.85°E
发射日期 May 10, 2023
运行时间 2.8 years
类型 internet

技术详情

分类 Payload
质量 305.00 kg
干质量 290.00 kg
总质量 305.00 kg
长度 0.20 m
直径 2.80 m
跨度 9.00 m
形状 Box + pan
制造商 SPXS
平台类型 Starlink
阶段状态 In Orbit
所有者/国家 SPXS/US

大型星座

Loading constellations...